| time (UTC) | temp C | wind direction | speed KPH | gust KPH | rain 1hr cm | rain 24hr cm | rain mn cm | humidity % | barometer mb |
| 20260504045951 | 6 | 270 | 0.0 | 0.0 | 0.00 | 0.00 | 0.00 | 100 | 1012.7 |
| 20260504044953 | 6 | 270 | 0.0 | 0.0 | 0.00 | 0.00 | 0.00 | 100 | 1012.9 |
| 20260504043951 | 6 | 270 | 0.0 | 1.6 | 0.00 | 0.00 | 0.00 | 100 | 1013.0 |
| 20260504042953 | 6 | 247 | 1.6 | 3.2 | 0.00 | 0.00 | 0.00 | 100 | 1012.9 |
| 20260504041954 | 6 | 247 | 3.2 | 3.2 | 0.00 | 0.00 | 0.00 | 100 | 1012.9 |
| 20260504040953 | 6 | 233 | 6.4 | 9.7 | 0.00 | 0.00 | 0.00 | 100 | 1013.2 |
| 20260504035956 | 6 | 247 | 4.8 | 8.0 | 0.00 | 0.00 | 0.00 | 100 | 1013.3 |
| 20260504034959 | 6 | 247 | 1.6 | 1.6 | 0.00 | 0.00 | 0.00 | 100 | 1013.4 |
| 20260504034056 | 6 | 247 | 0.0 | 1.6 | 0.00 | 0.00 | 0.00 | 100 | 1013.4 |
| 20260504033057 | 5 | 247 | 0.0 | 0.0 | 0.00 | 0.00 | 0.00 | 100 | 1013.2 |
| 20260504031155 | 5 | 247 | 0.0 | 0.0 | 0.00 | 0.00 | 0.00 | 100 | 1012.8 |
| 20260504031058 | 5 | 247 | 0.0 | 0.0 | 0.00 | 0.00 | 0.00 | 100 | 1012.8 |
| 20260504030056 | 5 | 247 | 0.0 | 0.0 | 0.00 | 0.00 | 0.00 | 100 | 1012.7 |
| 20260504025058 | 5 | 247 | 0.0 | 0.0 | 0.00 | 0.00 | 0.00 | 100 | 1012.7 |
| 20260504024157 | 4 | 247 | 0.0 | 0.0 | 0.00 | 0.00 | 0.00 | 100 | 1012.7 |
| 20260504023156 | 5 | 247 | 0.0 | 0.0 | 0.00 | 0.00 | 0.00 | 100 | 1012.7 |
| 20260504022158 | 6 | 247 | 0.0 | 0.0 | 0.00 | 0.00 | 0.00 | 100 | 1012.8 |
| 20260504021256 | 6 | 247 | 0.0 | 0.0 | 0.00 | 0.00 | 0.00 | 100 | 1012.7 |
| 20260504020258 | 6 | 270 | 0.0 | 1.6 | 0.00 | 0.00 | 0.00 | 100 | 1012.8 |
| 20260504015357 | 7 | 270 | 0.0 | 0.0 | 0.00 | 0.00 | 0.00 | 100 | 1012.8 |
| 20260504014455 | 7 | 270 | 4.8 | 4.8 | 0.00 | 0.00 | 0.00 | 100 | 1012.8 |
| 20260504012455 | 8 | 270 | 1.6 | 1.6 | 0.00 | 0.00 | 0.00 | 100 | 1012.9 |
| 20260504010456 | 8 | 180 | 3.2 | 3.2 | 0.00 | 0.00 | 0.00 | 100 | 1012.8 |
| 20260504004457 | 8 | 270 | 3.2 | 3.2 | 0.00 | 0.00 | 0.00 | 100 | 1012.7 |
| 20260504003556 | 8 | 270 | 6.4 | 9.7 | 0.00 | 0.00 | 0.00 | 100 | 1012.7 |
| 20260504002555 | 8 | 247 | 11.3 | 20.9 | 0.00 | 0.00 | 0.00 | 100 | 1012.5 |
| 20260504001558 | 8 | 265 | 11.3 | 22.5 | 0.00 | 0.00 | 0.00 | 100 | 1012.5 |
| 20260504000558 | 8 | 270 | 3.2 | 4.8 | 0.00 | 0.00 | 0.00 | 100 | 1012.4 |
| 20260503235555 | 8 | 259 | 8.0 | 11.3 | 0.00 | 0.00 | 0.00 | 100 | 1012.4 |
| 20260503231558 | 10 | 270 | 9.7 | 12.9 | 0.00 | 0.00 | 0.00 | 100 | 1012.0 |
| 20260503230656 | 10 | 267 | 17.7 | 25.7 | 0.00 | 0.00 | 0.00 | 100 | 1011.8 |
| 20260503225658 | 10 | 266 | 14.5 | 19.3 | 0.00 | 0.00 | 0.00 | 100 | 1011.8 |
| 20260503224657 | 11 | 249 | 9.7 | 16.1 | 0.00 | 0.00 | 0.00 | 100 | 1011.8 |
| 20260503223654 | 11 | 257 | 12.9 | 19.3 | 0.00 | 0.00 | 0.00 | 100 | 1011.8 |
| 20260503222657 | 11 | 259 | 11.3 | 22.5 | 0.00 | 0.00 | 0.00 | 100 | 1011.6 |
| 20260503215656 | 11 | 254 | 12.9 | 24.1 | 0.00 | 0.00 | 0.00 | 100 | 1011.5 |
| 20260503215558 | 11 | 254 | 17.7 | 32.2 | 0.00 | 0.00 | 0.00 | 100 | 1011.6 |
| 20260503213556 | 11 | 268 | 12.9 | 29.0 | 0.00 | 0.00 | 0.00 | 100 | 1011.5 |
| 20260503211557 | 11 | 244 | 14.5 | 32.2 | 0.00 | 0.00 | 0.00 | 100 | 1011.5 |
| 20260503210557 | 11 | 242 | 16.1 | 22.5 | 0.00 | 0.00 | 0.00 | 100 | 1011.5 |
| 20260503204556 | 11 | 262 | 22.5 | 35.4 | 0.00 | 0.00 | 0.00 | 100 | 1011.6 |
| 20260503203556 | 11 | 244 | 12.9 | 22.5 | 0.00 | 0.00 | 0.00 | 100 | 1011.7 |
| 20260503202656 | 11 | 260 | 9.7 | 16.1 | 0.00 | 0.00 | 0.00 | 100 | 1011.7 |
| 20260503200756 | 10 | 197 | 6.4 | 17.7 | 0.00 | 0.00 | 0.00 | 100 | 1011.7 |
| 20260503195855 | 11 | 262 | 14.5 | 22.5 | 0.00 | 0.00 | 0.00 | 100 | 1011.8 |
| 20260503194854 | 10 | 215 | 12.9 | 20.9 | 0.00 | 0.00 | 0.00 | 100 | 1011.9 |
| 20260503194755 | 10 | 249 | 11.3 | 19.3 | 0.00 | 0.00 | 0.00 | 100 | 1011.9 |
| 20260503193755 | 10 | 243 | 6.4 | 14.5 | 0.00 | 0.00 | 0.00 | 100 | 1012.1 |
| 20260503190854 | 10 | 267 | 8.0 | 14.5 | 0.00 | 0.00 | 0.00 | 100 | 1012.6 |
| 20260503185856 | 10 | 265 | 14.5 | 22.5 | 0.00 | 0.00 | 0.00 | 100 | 1012.7 |
| 20260503184856 | 10 | 266 | 9.7 | 14.5 | 0.00 | 0.00 | 0.00 | 100 | 1012.7 |
| 20260503183955 | 9 | 233 | 8.0 | 12.9 | 0.00 | 0.00 | 0.00 | 100 | 1012.8 |
| 20260503182955 | 10 | 241 | 11.3 | 16.1 | 0.00 | 0.00 | 0.00 | 100 | 1013.0 |
| 20260503181957 | 8 | 266 | 9.7 | 14.5 | 0.00 | 0.00 | 0.00 | 100 | 1013.0 |
| 20260503181055 | 8 | 241 | 11.3 | 17.7 | 0.00 | 0.00 | 0.00 | 100 | 1013.0 |
| 20260503180056 | 8 | 256 | 9.7 | 17.7 | 0.00 | 0.00 | 0.00 | 100 | 1013.0 |
| 20260503175056 | 8 | 256 | 6.4 | 11.3 | 0.00 | 0.00 | 0.00 | 100 | 1013.1 |
| 20260503174155 | 8 | 208 | 9.7 | 14.5 | 0.00 | 0.00 | 0.00 | 100 | 1013.2 |
| 20260503173155 | 8 | 253 | 9.7 | 20.9 | 0.00 | 0.00 | 0.00 | 100 | 1013.3 |
| 20260503172154 | 8 | 251 | 9.7 | 17.7 | 0.00 | 0.00 | 0.00 | 100 | 1013.3 |
| 20260503170254 | 7 | 243 | 9.7 | 17.7 | 0.00 | 0.00 | 0.00 | 100 | 1013.4 |
| 20260503150255 | 6 | 263 | 8.0 | 12.9 | 0.00 | 0.00 | 0.00 | 100 | 1013.7 |
| 20260503140255 | 6 | 264 | 11.3 | 17.7 | 0.00 | 0.03 | 0.00 | 100 | 1013.9 |
| 20260503130355 | 5 | 243 | 6.4 | 12.9 | 0.00 | 0.03 | 0.00 | 100 | 1014.2 |
| 20260503110552 | 2 | 268 | 4.8 | 9.7 | 0.00 | 0.03 | 0.00 | 100 | 1013.4 |
| 20260503081052 | 1 | 270 | 3.2 | 4.8 | 0.00 | 0.05 | 0.00 | 100 | 1013.1 |
| 20260503072153 | 1 | 252 | 1.6 | 3.2 | 0.00 | 0.05 | 0.00 | 100 | 1013.3 |
| 20260503071153 | 1 | 247 | 3.2 | 6.4 | 0.00 | 0.05 | 0.00 | 100 | 1013.3 |